STARLINK-1500, 45744

Orbit data source: Space-Track

STARLINK-1500, 45744 is a payload satellite owned by SpaceX/Seattle (US) in LEO that was launched on Sat, 13 Jun 2020 UTC via an FALCON 9 launch vehicle from the Air Force Eastern Test Range (AFETR). Payload-class satellites include a variety of spacecraft equipped with specific instruments for various scientific and technological missions. These include communications satellites like Starlink; space stations such as the ISS; scientific satellites like the Hubble; Earth observation satellites from companies like Planet Labs, Umbra, and HawkEye 360; GPS; miniature CubeSats for education and research; and military/defense satellites.

Loading next visibility...
Identifier
45744, 2020-038Q
Orbit
LEO
Country
Flag of USUS
Related business
Manufacturer
SpaceX/Seattle
Mission
Partially operational Commercial Communications
Bus & Motor
STARLINK, Unknown motor
Mass
260 kg wet, ~248 kg dry
Launch date (UTC)
2020-06-13 (6 years ago)
Launch vehicle
FALCON 9
Launch site
Air Force Eastern Test Range (AFETR)
Object type
Payload
Rocket body
Debris
Shape & HBR
Box + 1 Pan, 10.1 m
Radar Cross Section
13.562 m², Large (>1 m²)

Expand to show TLE details & history
Last TLE update: 16 hours ago

TLE from 16 hours ago
0 STARLINK-1500
1 45744U 20038Q   26072.97506791  .00029219  00000-0  85407-3 0  9998
2 45744  53.0371 172.6439 0001806 297.1636  62.9181 15.35072742317471
Epoch: 2026-03-13T23:24Z
TLE epoch observation values (Epoch: 2026-03-13T23:24:05.867Z)
Latitude
-0.00002°
Longitude
10.01655°
Altitude
461.031 km
Speed
7.638 km/s
True Right ascension
11h 30m 34s
True Declination
0° 00' 00"
Sunlit
Object was in full shadow at epoch
Visualization orbit readout
Latitude
Unknown
Longitude
Unknown
Altitude
Unknown
Speed
Unknown
Apparent Right ascension
Unknown
Apparent Declination
Unknown
Sunlit
N/A
Visualization observer readout
Local Sidereal Time
19:36:37
Azimuth
Unknown
Elevation
Unknown
Doppler factor
Unknown
Orbital elements
Apogee altitude
462.216 km
Perigee altitude
459.746 km
Semi-major axis
6,839.118 km
Eccentricity
0.00018
Inclination
53.0371°
RAAN
172.6439°
Arg. of periapsis
297.1636°
True anomaly
62.93653°
Mean anomaly
62.9181°
Eccentric anomaly
62.92731°
Mean motion
3.83745 °/min
Orbital period
93.81 mins
BSTAR
0.00085407
Loading maneuver chart data...
Computing Atmospheric mass density...

Documentation

Showing up to 5 results
|